Showing default

QIANFAN-67, 62797

Orbit data source: Space-Track

QIANFAN-67, 62797 is a Chinese payload satellite in LEO that was launched on Thu, 23 Jan 2025 UTC via a CHANG ZHENG 6A launch vehicle from the Taiyaun Space Center, China (TSC). Payload-class satellites include a variety of spacecraft equipped with specific instruments for various scientific and technological missions. These include communications satellites like Starlink; space stations such as the ISS; scientific satellites like the Hubble; Earth observation satellites from companies like Planet Labs, Umbra, and HawkEye 360; GPS; miniature CubeSats for education and research; and military/defense satellites.

Loading next visibility...
Identifier
62797, 2025-016N
Orbit
LEO
Last TLE update
10 hours ago
Origin
Manufacturer
SECM
Mission
Operational Commercial Communications
Bus & Motor
QIANFAN, Unknown motor
Mass
267 kg wet, ~267 kg dry
Launch date (UTC)
2025-01-23 (6 months ago)
Launch vehicle
CHANG ZHENG 6A
Launch site
Taiyaun Space Center, China (TSC)
Object type
Payload
Rocket body
Debris
Shape & HBR
Box + 1 Pan, 10 m
Radar Cross Section
13.200 m², Large (>1 m²)

Expand to show TLE details & history

TLE from 10 hours ago
0 QIANFAN-67
1 62797U 25016N   25191.59746917  .00000118  00000-0  16385-3 0  9997
2 62797  88.9857 119.0504 0017475  74.4968 285.8111 13.50952575 26310
Epoch: 2025-07-10T14:20Z
TLE epoch observation values (Epoch: 2025-07-10T14:20:21.336Z)
Latitude
-0.00004°
Longitude
-24.79996°
Altitude
1,068.184 km
Speed
7.32 km/s
True Right ascension
07h 56m 12s
True Declination
0° 00' 00"
Sunlit
Object was in daylight at epoch
Visualization orbit readout
Latitude
-75.81435°
Longitude
159.15257°
Altitude
1,109.285 km
Speed
7.291 km/s
Apparent Right ascension
23h 37m 20s
Apparent Declination
-62° 42' 52"
Sunlit
Object is in full shadow
Visualization observer readout
Local Sidereal Time
12:45:32
Azimuth
161.442° S
Elevation
-65.015°
Doppler factor
1
Orbital elements
Apogee altitude
1,078.815 km
Perigee altitude
1,052.799 km
Semi-major axis
7,443.944 km
Eccentricity
0.00175
Inclination
88.9857°
RAAN
119.0504°
Arg. of periapsis
74.4968°
True anomaly
Unknown
Mean anomaly
285.8111°
Eccentric anomaly
Unknown
Mean motion
3.37939 °/min
Orbital period
106.53 mins
BSTAR
0.00016385
Loading maneuver chart data...
Loading SW <> Apogee altitude chart data...
Loading historical data...
Loading historical data...
Loading historical data...
Loading historical data...
Loading historical data...
Loading historical data...
Loading historical data...

QIANFAN-67 Visibility forecast

Observer location: undefined°, undefined°

Span
Click to sort rows by Start time (UTC) header in descending order
Start Az.
Max El. time (UTC)
Max El. Az.
Max El.
End time (UTC)
End Az.
12 mins2025-07-11 06:55:18.467Z11.597° NNE2025-07-11 07:01:18.467Z78.481° E37.583°2025-07-11 07:07:18.467Z159.556° S
8 mins2025-07-11 08:44:18.467Z323.662° NNW2025-07-11 08:47:18.467Z289.199° WNW23.026°2025-07-11 08:52:18.467Z234.918° WSW
10 mins2025-07-11 18:54:18.467Z144.299° SSE2025-07-11 18:59:18.467Z69.391° E34.503°2025-07-11 19:04:18.467Z14.445° NNE
9 mins2025-07-11 20:41:18.467Z229.292° WSW2025-07-11 20:45:18.467Z276.108° WNW25.511°2025-07-11 20:50:18.467Z332.787° NNW
|